Location: Ch�ze
(42.9000°N, 0.0333°W)
Time: 23:45:49
(UTC+00:00)

Cosmos 1703 - Pass Details

Date: 24 January 2021
Orbit: 524 x 538 km, 82.5° (Epoch: 24 February)

Event Time Altitude Azimuth Distance (km) Brightness Sun altitude
Rises 18:20:11 0° 185° (S) 2,649 7.0 -14.2°
Reaches altitude 10° 18:22:19 10° 184° (S) 1,763 6.1 -14.6°
Maximum altitude 18:26:11 82° 97° (E) 536 3.1 -15.3°
Drops below altitude 10° 18:30:05 10° 10° (N) 1,774 5.7 -16.0°
Enters shadow 18:31:36 - 10° (N) 2,403 6.4 -16.3°
